Regional Weather Roundup
Issued by NWS

Home | Current Version | Previous Version | Text Only | Print | Product List | Glossary Off
Versions: 1 2 3 4 5 6 7 8 9 10 11 12 13 14 15 16 17 18 19 20 21 22 23 24 25 26 27 28 29 30 31 32 33 34 35 36 37 38 39 40 41 42 43 44 45 46 47 48 49 50

000
ASUS44 KMEG 251800
RWRTN
TENNESSEE HOURLY STATE WEATHER ROUNDUP
NATIONAL WEATHER SERVICE MEMPHIS TN
100 PM CDT SAT APR 25 2015

TNZ002-004-019-021-049-052-054-088>092-251900-
WEST TENNESSEE

CITY           SKY/WX    TMP DP  RH WIND       PRES   REMARKS
MEMPHIS INTL   CLOUDY    75  66  73 SW15G24   29.63F
NWS MEMPHIS      N/A     73 N/A N/A MISG        N/A
JACKSON        CLOUDY    75  64  68 SW17G28   29.61F
DYERSBURG      CLOUDY    75  55  50 SW21G28   29.57F
UNION CITY     MOSUNNY   72  32  23 SW16      29.55F
PARIS          MOSUNNY   73  61  64 SW16      29.57F
LEXINGTON      PTSUNNY   73  64  73 SW15      29.60F
SAVANNAH       MOSUNNY   75  32  20 SW10      29.64S
$$

TNZ008-025-027-028-033-062-065-066-251900-
NORTH MIDDLE TENNESSEE

CITY           SKY/WX    TMP DP  RH WIND       PRES   REMARKS
NASHVILLE      PTSUNNY   76  62  62 SW9G18    29.60F
CLARKSVILLE    PTSUNNY   76  61  59 SW20G26   29.56F
COOKEVILLE     MOSUNNY   75  64  69 SW13      29.62F
CROSSVILLE     CLOUDY    69  59  70 S8        29.67F
$$

TNZ061-075-076-078-094-096-097-251900-
SOUTH MIDDLE TENNESSEE

CITY           SKY/WX    TMP DP  RH WIND       PRES   REMARKS
FAYETTEVILLE   CLOUDY    72  63  73 SW10      29.68F
TULLAHOMA      MOSUNNY   75  63  64 W17       29.67F
WINCHESTER     MOSUNNY   75  63  64 W15       29.68F
MCMINNVILLE    MOSUNNY   75  64  69 SW10      29.64F
COLUMBIA       MOSUNNY   79  32  18 SW15      29.61F
SHELBYVILLE    MOSUNNY   77  66  69 SW13      29.65F
$$

TNZ017-018-042-046-047-251900-
NORTHEAST TENNESSEE

CITY           SKY/WX    TMP DP  RH WIND       PRES   REMARKS
TRI CITIES     CLOUDY    66  49  54 CALM      29.70F
ELIZABETHTON   CLOUDY    68  54  60 NW7       29.70F
$$

TNZ012-013-036-069-073-074-251900-
CENTRAL EAST TENNESSEE

CITY           SKY/WX    TMP DP  RH WIND       PRES   REMARKS
KNOXVILLE      PTSUNNY   68  56  65 SW6       29.67F
OAK RIDGE      CLOUDY    62  56  80 VRB6      29.70F
GATLINBURG     CLEAR     66  54  63 N6        29.68F
$$

TNZ083-085-099-251900-
SOUTHEAST TENNESSEE

CITY           SKY/WX    TMP DP  RH WIND       PRES   REMARKS
CHATTANOOGA    PTSUNNY   72  62  71 S9G18     29.69F
$$

SKY/WX REPORTED AS FAIR MEANS FEW OR NO CLOUDS BELOW
12 THOUSAND FEET.




USA.gov is the U.S. government's official web portal to all federal, state and local government web resources and services.